OHFUK EDXH-EDXB

Flight info

Callsign OHFUK
Flight time 0h 17m
Altitude 3000
Route WANZA
Aircraft PC12/L-SDFGRWY/S

Departure

Time 2026-05-04 14:26
Airport Helgoland-Düne Airport (EDXH)

Arrival

Time 2026-05-04 14:43
Airport Heide-Büsum Airport (EDXB)
Time Latitude Longitude Altitude Speed Heading
2026-05-04 13:57 54.18675 7.91486 6 ft 0 kts 144°
2026-05-04 14:21 54.18673 7.91488 6 ft 2 kts 152°
2026-05-04 14:21 54.18644 7.91512 5 ft 8 kts 206°
2026-05-04 14:22 54.18614 7.91435 5 ft 9 kts 236°
2026-05-04 14:22 54.18602 7.91409 5 ft 0 kts 232°
2026-05-04 14:22 54.18596 7.91395 6 ft 5 kts 235°
2026-05-04 14:23 54.18657 7.91290 9 ft 7 kts 319°
2026-05-04 14:23 54.18658 7.91272 9 ft 0 kts 234°
2026-05-04 14:24 54.18653 7.91267 9 ft 1 kts 177°
2026-05-04 14:24 54.18650 7.91270 9 ft 0 kts 131°
2026-05-04 14:25 54.18616 7.91321 8 ft 27 kts 142°
2026-05-04 14:25 54.17864 7.92404 218 ft 98 kts 135°
2026-05-04 14:25 54.17370 7.93301 578 ft 109 kts 133°
2026-05-04 14:26 54.17264 7.94550 1019 ft 119 kts 61°
2026-05-04 14:26 54.18021 7.94995 1403 ft 122 kts 346°
2026-05-04 14:26 54.18778 7.94119 1534 ft 152 kts 307°
2026-05-04 14:26 54.19335 7.92561 1933 ft 159 kts 299°
2026-05-04 14:27 54.20184 7.91398 2360 ft 167 kts 350°
2026-05-04 14:27 54.21303 7.91996 2556 ft 180 kts 44°
2026-05-04 14:27 54.22069 7.93708 2527 ft 187 kts 60°
2026-05-04 14:27 54.22301 7.95914 2513 ft 191 kts 89°
2026-05-04 14:28 54.22208 7.98094 2506 ft 195 kts 98°
2026-05-04 14:28 54.21986 8.00312 2482 ft 185 kts 101°
2026-05-04 14:28 54.21743 8.02414 2335 ft 187 kts 102°
2026-05-04 14:28 54.21487 8.04579 2252 ft 186 kts 100°
2026-05-04 14:29 54.21606 8.08848 2018 ft 185 kts 86°
2026-05-04 14:29 54.21739 8.13047 1643 ft 185 kts 88°
2026-05-04 14:30 54.21805 8.15195 1553 ft 174 kts 88°
2026-05-04 14:30 54.21867 8.17187 1554 ft 172 kts 87°
2026-05-04 14:30 54.22014 8.21457 1557 ft 200 kts 87°
2026-05-04 14:31 54.22097 8.23889 1558 ft 210 kts 87°
2026-05-04 14:31 54.22269 8.29027 1556 ft 221 kts 87°
2026-05-04 14:32 54.22443 8.34324 1555 ft 224 kts 87°
2026-05-04 14:32 54.22527 8.36927 1555 ft 223 kts 87°
2026-05-04 14:32 54.22556 8.39579 1554 ft 222 kts 94°
2026-05-04 14:32 54.22293 8.42164 1605 ft 219 kts 107°
2026-05-04 14:33 54.21896 8.44678 1602 ft 220 kts 104°
2026-05-04 14:33 54.21547 8.47230 1600 ft 221 kts 103°
2026-05-04 14:33 54.21201 8.49787 1600 ft 221 kts 104°
2026-05-04 14:33 54.20858 8.52264 1599 ft 222 kts 104°
2026-05-04 14:34 54.20495 8.54831 1600 ft 222 kts 104°
2026-05-04 14:34 54.20130 8.57379 1600 ft 222 kts 104°
2026-05-04 14:34 54.19762 8.59936 1601 ft 222 kts 104°
2026-05-04 14:34 54.19412 8.62322 1598 ft 191 kts 105°
2026-05-04 14:35 54.19110 8.64348 1598 ft 165 kts 105°
2026-05-04 14:35 54.18847 8.66130 1598 ft 146 kts 105°
2026-05-04 14:35 54.18614 8.67730 1599 ft 132 kts 105°
2026-05-04 14:35 54.18404 8.69177 1598 ft 120 kts 105°
2026-05-04 14:36 54.18196 8.70634 1611 ft 151 kts 105°
2026-05-04 14:36 54.17904 8.72644 1613 ft 195 kts 105°
2026-05-04 14:36 54.17562 8.74996 1613 ft 204 kts 105°
2026-05-04 14:36 54.17220 8.77320 1604 ft 198 kts 105°
2026-05-04 14:37 54.16891 8.79562 1598 ft 191 kts 102°
2026-05-04 14:37 54.16636 8.81608 1584 ft 166 kts 102°
2026-05-04 14:37 54.16462 8.83451 1545 ft 151 kts 91°
2026-05-04 14:37 54.16534 8.85207 1410 ft 147 kts 84°
2026-05-04 14:38 54.16674 8.86954 1206 ft 149 kts 81°
2026-05-04 14:38 54.16855 8.88645 1071 ft 146 kts 79°
2026-05-04 14:38 54.17057 8.90343 908 ft 145 kts 79°
2026-05-04 14:38 54.17214 8.91980 837 ft 135 kts 83°
2026-05-04 14:39 54.17207 8.93533 762 ft 129 kts 97°
2026-05-04 14:39 54.17003 8.94990 774 ft 126 kts 108°
2026-05-04 14:39 54.16740 8.96444 808 ft 130 kts 108°
2026-05-04 14:40 54.16213 8.99412 892 ft 130 kts 108°
2026-05-04 14:40 54.15972 9.00771 873 ft 113 kts 108°
2026-05-04 14:40 54.15537 9.01757 889 ft 105 kts 155°
2026-05-04 14:40 54.14834 9.01725 886 ft 104 kts 205°
2026-05-04 14:41 54.14271 9.00966 853 ft 100 kts 233°
2026-05-04 14:41 54.14034 8.99879 789 ft 99 kts 263°
2026-05-04 14:41 54.13984 8.97561 694 ft 96 kts 274°
2026-05-04 14:42 54.14253 8.95444 552 ft 87 kts 290°
2026-05-04 14:42 54.14457 8.94485 462 ft 87 kts 290°
2026-05-04 14:42 54.14656 8.93525 368 ft 85 kts 291°
2026-05-04 14:43 54.14850 8.92592 260 ft 82 kts 290°
2026-05-04 14:43 54.15037 8.91663 148 ft 83 kts 291°
2026-05-04 14:43 54.15224 8.90747 21 ft 79 kts 291°
2026-05-04 14:43 54.15374 8.90007 12 ft 43 kts 289°
2026-05-04 14:44 54.15423 8.89768 10 ft 15 kts 289°
2026-05-04 14:44 54.15398 8.89693 12 ft 6 kts 199°
2026-05-04 14:44 54.15359 8.89669 12 ft 6 kts 211°
2026-05-04 14:44 54.15354 8.89630 12 ft 6 kts 308°
2026-05-04 14:45 54.15376 8.89601 12 ft 0 kts 226°
2026-05-04 14:45 54.15373 8.89600 12 ft 0 kts 185°